Weather in Kononovo

Russia / Vladimir Oblast     55°14′24″N   41°46′57″E
temp.,
°C
wind,
m/s
gust,
m/s
humid.,
%
clouds,
%
prec.,
mm/h
press.,
hPa
HPBL,
m
4 march, thu
thu400:00−1w61194100 0.2 1007683
03:00−2wsw61292100 0.3 1004658
06:00−1wsw71394100 0.2 1001679
09:00+1w81598100 1.0 998830
12:000wsw81498100 0.1 998907
15:000nw4893100 1.0 998651
18:00−2w3588100 0.1 99998
21:00−4nnw2290100 0.1 100021
5 march, fri
fri500:00−6nnw2392100 0.0 100038
03:00−9nnw2392100 0.1 100221
06:00−10nw239399 0.0 100426
09:00−8nw249366 0.0 1006187
12:00−3w348666 0.0 1007609
15:00−2w468183 0.4 1008860
18:00−6wnw369079 0.4 1009132
21:00−8wnw349078 0.4 101248
6 march, sat
sat600:00−12nw34910 0.0 101440
03:00−14nnw23902 0.0 101620
06:00−16nnw11860 0.0 101620
09:00−12ese10810 0.0 101740
12:00−7ese117348 0.0 1016346
15:00−6s117466 0.0 1015598
18:00−10wnw019293 0.1 101521
21:00−9nnw239695 0.4 101567
7 march, sun
sun700:00−14wnw128978 0.1 101520
03:00−15sw349239 0.1 101342
06:00−14ssw5109322 0.0 1010200
09:00−9ssw7148659 0.0 1007551
12:00−5ssw91586100 0.1 10021000
15:00−4sw91592100 1.1 9981240
18:00−3sw81494100 1.4 995922
21:00−8wnw61471100 1.9 997474
8 march, mon
mon800:00−12wsw48840 0.0 999149
03:00−11sw5128326 0.0 999317
06:00−12ssw4119050 0.0 997230
09:00−9sw6109471 0.1 995527
12:00−6w71091100 0.9 995939
15:00−6wnw7978100 1.2 9981088
18:00−8wnw81489100 0.3 1002937
21:00−11wnw5128998 0.3 1006414